TimeCST,TemperatureF,Dew PointF,Humidity,Sea Level PressureIn,VisibilityMPH,Wind Direction,Wind SpeedMPH,Gust SpeedMPH,PrecipitationIn,Events,Conditions,WindDirDegrees,DateUTC
12:53 AM,60.1,46.0,60,29.94,10.0,SSW,15.0,23.0,N/A,,Overcast,200,2012-12-02 06:53:00
1:53 AM,57.9,48.0,70,29.93,10.0,SSW,13.8,23.0,0.02,,Overcast,210,2012-12-02 07:53:00
2:53 AM,59.0,48.0,67,29.92,10.0,SW,15.0,25.3,N/A,,Overcast,220,2012-12-02 08:53:00
3:53 AM,57.0,50.0,77,29.91,10.0,SSW,15.0,-,0.01,,Overcast,210,2012-12-02 09:53:00
4:00 AM,57.2,50.0,77,29.91,10.0,SW,16.1,-,N/A,,Overcast,220,2012-12-02 10:00:00
4:53 AM,55.0,52.0,89,29.92,6.0,SW,12.7,21.9,0.02,Rain,Light Rain,220,2012-12-02 10:53:00
5:53 AM,55.0,52.0,89,29.93,10.0,SW,9.2,-,0.01,,Overcast,220,2012-12-02 11:53:00
6:53 AM,55.0,52.0,89,29.94,10.0,SW,9.2,-,N/A,,Overcast,220,2012-12-02 12:53:00
7:53 AM,55.0,52.0,89,29.96,9.0,SW,9.2,-,N/A,,Overcast,230,2012-12-02 13:53:00
8:53 AM,55.9,53.1,90,29.98,9.0,SW,6.9,-,N/A,,Overcast,230,2012-12-02 14:53:00
9:53 AM,57.0,53.1,87,29.99,10.0,SW,9.2,-,N/A,,Overcast,230,2012-12-02 15:53:00
10:53 AM,57.9,54.0,87,29.99,9.0,WSW,6.9,-,N/A,,Overcast,240,2012-12-02 16:53:00
11:53 AM,59.0,54.0,83,29.98,5.0,WNW,8.1,-,N/A,,Haze,300,2012-12-02 17:53:00
12:31 PM,60.8,55.4,82,29.98,5.0,WSW,6.9,-,N/A,,Haze,250,2012-12-02 18:31:00
12:53 PM,61.0,55.0,81,29.98,5.0,WSW,5.8,-,N/A,,Haze,250,2012-12-02 18:53:00
1:15 PM,60.8,55.4,82,29.99,5.0,West,5.8,-,N/A,,Haze,260,2012-12-02 19:15:00
1:53 PM,62.1,54.0,75,29.98,5.0,SW,4.6,-,N/A,,Haze,230,2012-12-02 19:53:00
2:53 PM,61.0,55.0,81,29.99,5.0,Calm,Calm,-,N/A,,Haze,0,2012-12-02 20:53:00
3:53 PM,59.0,54.0,83,30.01,4.0,Calm,Calm,-,N/A,,Haze,0,2012-12-02 21:53:00
4:03 PM,57.2,53.6,88,30.01,4.0,ENE,3.5,-,N/A,,Overcast,60,2012-12-02 22:03:00
4:53 PM,57.0,53.1,87,30.02,5.0,East,4.6,-,N/A,,Overcast,90,2012-12-02 22:53:00
5:53 PM,54.0,52.0,93,30.05,4.0,NE,3.5,-,N/A,,Overcast,40,2012-12-02 23:53:00
6:19 PM,53.6,51.8,94,30.06,4.0,Calm,Calm,-,N/A,,Mostly Cloudy,0,2012-12-03 00:19:00
6:38 PM,53.6,51.8,94,30.06,4.0,ESE,4.6,-,N/A,,Mostly Cloudy,120,2012-12-03 00:38:00
6:53 PM,52.0,51.1,97,30.06,3.0,Calm,Calm,-,N/A,,Partly Cloudy,0,2012-12-03 00:53:00
7:12 PM,50.0,50.0,100,30.06,1.8,NE,3.5,-,N/A,,Partly Cloudy,50,2012-12-03 01:12:00
7:30 PM,51.8,50.0,94,30.07,0.8,Calm,Calm,-,N/A,,Mist,0,2012-12-03 01:30:00
7:38 PM,50.0,48.2,94,30.06,0.2,Calm,Calm,-,N/A,Fog,Fog,0,2012-12-03 01:38:00
7:50 PM,46.4,46.4,100,30.07,0.2,East,3.5,-,N/A,Fog,Fog,100,2012-12-03 01:50:00
7:53 PM,46.9,46.0,97,30.08,0.2,East,3.5,-,N/A,Fog,Fog,100,2012-12-03 01:53:00
8:06 PM,48.2,48.2,100,30.08,0.2,East,4.6,-,N/A,Fog,Fog,80,2012-12-03 02:06:00
8:22 PM,50.0,48.2,94,30.08,0.8,ENE,3.5,-,N/A,,Overcast,60,2012-12-03 02:22:00
8:49 PM,46.4,46.4,100,30.07,0.2,ENE,4.6,-,N/A,Fog,Fog,60,2012-12-03 02:49:00
8:53 PM,46.9,46.9,100,30.08,0.2,ENE,4.6,-,N/A,Fog,Fog,70,2012-12-03 02:53:00
9:13 PM,46.4,46.4,100,30.07,0.2,East,3.5,-,N/A,Fog,Fog,90,2012-12-03 03:13:00
9:32 PM,46.4,46.4,100,30.07,0.2,ENE,3.5,-,N/A,Fog,Fog,60,2012-12-03 03:32:00
9:53 PM,46.0,46.0,100,30.08,0.2,NE,3.5,-,N/A,Fog,Fog,40,2012-12-03 03:53:00
10:53 PM,46.9,46.0,97,30.08,0.2,NE,3.5,-,N/A,Fog,Fog,50,2012-12-03 04:53:00
11:53 PM,50.0,48.9,96,30.06,0.2,Calm,Calm,-,N/A,Fog,Fog,0,2012-12-03 05:53:00